,,,PA_Meas_PMT16A,,PR_Meas_QMR101_102,,RH_Meas_QMH101,,SR_Meas_QMS101,,TA_Meas_QMH101,,GenWind,,GenWind,
date,time,status,PA,status,PR,status,RH,status,SR,status,TA,status,DirAvg,status,SpdAvg,
2009-08-10, 00:00:05,VALID,1004.12,VALID,0,VALID,90.3107,VALID,0,VALID,24.6185,VALID,319,VALID,0,
2009-08-10, 00:01:05,VALID,1004.14,VALID,0,VALID,90.3183,VALID,0,VALID,24.6185,VALID,319,VALID,0,
2009-08-10, 00:02:05,VALID,1004.14,VALID,0,VALID,90.1963,VALID,0,VALID,24.5796,VALID,319,VALID,0,
2009-08-10, 00:03:05,VALID,1004.12,VALID,0,VALID,90.2497,VALID,0,VALID,24.5406,VALID,319,VALID,0,
2009-08-10, 00:04:05,VALID,1004.13,VALID,0,VALID,90.3565,VALID,0,VALID,24.4628,VALID,319,VALID,0.214844,
2009-08-10, 00:05:05,VALID,1004.07,VALID,0,VALID,90.5548,VALID,0,VALID,24.3849,VALID,319,VALID,0.414844,
2009-08-10, 00:06:05,VALID,1004.08,VALID,0,VALID,90.7379,VALID,0,VALID,24.307,VALID,319,VALID,0.614453,
2009-08-10, 00:07:05,VALID,1004.06,VALID,0,VALID,90.8676,VALID,0,VALID,24.2097,VALID,319,VALID,0.517187,
2009-08-10, 00:08:05,VALID,1004.09,VALID,0,VALID,91.1422,VALID,0,VALID,24.1105,VALID,319,VALID,0.398438,
2009-08-10, 00:09:05,VALID,1004.09,VALID,0,VALID,91.4321,VALID,0,VALID,24.0734,VALID,319,VALID,0.385156,
2009-08-10, 00:10:05,VALID,1004.08,VALID,0,VALID,91.7373,VALID,0,VALID,24.0345,VALID,319,VALID,0.244141,
2009-08-10, 00:11:05,VALID,1004.11,VALID,0,VALID,92.0577,VALID,0,VALID,24.015,VALID,319,VALID,0.204688,
2009-08-10, 00:12:05,VALID,1004.11,VALID,0,VALID,92.3629,VALID,0,VALID,23.9955,VALID,319,VALID,0.217969,
2009-08-10, 00:13:05,VALID,1004.06,VALID,0,VALID,92.5307,VALID,0,VALID,23.9353,VALID,319,VALID,0.18125,
2009-08-10, 00:14:05,VALID,1004.04,VALID,0,VALID,92.6299,VALID,0,VALID,23.9566,VALID,319,VALID,0.123828,
2009-08-10, 00:15:05,VALID,1004.03,VALID,0,VALID,92.6528,VALID,0,VALID,23.9177,VALID,319,VALID,0.46875,
2009-08-10, 00:16:05,VALID,1004.02,VALID,0,VALID,92.6299,VALID,0,VALID,23.8982,VALID,319,VALID,0.280078,
2009-08-10, 00:17:05,VALID,1003.99,VALID,0,VALID,92.6375,VALID,0,VALID,23.8185,VALID,319,VALID,0,
2009-08-10, 00:18:05,VALID,1003.99,VALID,0,VALID,92.729,VALID,0,VALID,23.8009,VALID,319,VALID,0,
2009-08-10, 00:19:05,VALID,1003.99,VALID,0,VALID,92.7443,VALID,0,VALID,23.8221,VALID,319,VALID,0,
2009-08-10, 00:20:05,VALID,1004.01,VALID,0,VALID,92.8206,VALID,0,VALID,23.7407,VALID,319,VALID,0,
2009-08-10, 00:21:05,VALID,1004.03,VALID,0,VALID,92.9884,VALID,0,VALID,23.7425,VALID,319,VALID,0.341406,
2009-08-10, 00:22:05,VALID,1004.04,VALID,0,VALID,93.202,VALID,0,VALID,23.7212,VALID,319,VALID,0.379297,
2009-08-10, 00:23:05,VALID,1004.05,VALID,0,VALID,93.3012,VALID,0,VALID,23.7407,VALID,319,VALID,0.403125,
2009-08-10, 00:24:05,VALID,1004.04,VALID,0,VALID,93.2478,VALID,0,VALID,23.7425,VALID,319,VALID,0.39375,
2009-08-10, 00:25:05,VALID,1004.05,VALID,0,VALID,93.2554,VALID,0,VALID,23.723,VALID,319,VALID,0.533984,
2009-08-10, 00:26:05,VALID,1004.06,VALID,0,VALID,93.3394,VALID,0,VALID,23.7035,VALID,319,VALID,0.335547,
2009-08-10, 00:27:05,VALID,1004.04,VALID,0,VALID,93.408,VALID,0,VALID,23.7053,VALID,319,VALID,0.201562,
2009-08-10, 00:28:05,VALID,1004.04,VALID,0,VALID,93.4538,VALID,0,VALID,23.6628,VALID,319,VALID,0.228516,
2009-08-10, 00:29:05,VALID,1004.03,VALID,0,VALID,93.5453,VALID,0,VALID,23.6646,VALID,319,VALID,0.241016,
2009-08-10, 00:30:05,VALID,1004,VALID,0,VALID,93.6369,VALID,0,VALID,23.6434,VALID,319,VALID,0.184766,
2009-08-10, 00:31:05,VALID,1003.99,VALID,0,VALID,93.6598,VALID,0,VALID,23.6239,VALID,319,VALID,0.404297,
2009-08-10, 00:32:05,VALID,1003.97,VALID,0,VALID,93.7208,VALID,0,VALID,23.6452,VALID,319,VALID,0.405469,
2009-08-10, 00:33:05,VALID,1003.95,VALID,0,VALID,93.7666,VALID,0,VALID,23.6239,VALID,319,VALID,0.408594,
2009-08-10, 00:34:05,VALID,1003.94,VALID,0,VALID,93.7666,VALID,0,VALID,23.585,VALID,319,VALID,0.487891,
2009-08-10, 00:35:05,VALID,1003.93,VALID,0,VALID,93.7895,VALID,0,VALID,23.5655,VALID,319,VALID,0.336719,
2009-08-10, 00:36:05,VALID,1003.93,VALID,0,VALID,93.8276,VALID,0,VALID,23.5443,VALID,319,VALID,0.332422,
2009-08-10, 00:37:05,VALID,1003.94,VALID,0,VALID,93.8505,VALID,0,VALID,23.5655,VALID,319,VALID,0.331641,
2009-08-10, 00:38:05,VALID,1003.92,VALID,0,VALID,93.8581,VALID,0,VALID,23.546,VALID,319,VALID,0.447656,
2009-08-10, 00:39:05,VALID,1003.94,VALID,0,VALID,93.9344,VALID,0,VALID,23.5266,VALID,319,VALID,0.355469,
2009-08-10, 00:40:05,VALID,1003.94,VALID,0,VALID,94.0031,VALID,0,VALID,23.5673,VALID,319,VALID,0.425391,
2009-08-10, 00:41:05,VALID,1003.93,VALID,0,VALID,93.9497,VALID,0,VALID,23.5266,VALID,319,VALID,0.414063,
2009-08-10, 00:42:05,VALID,1003.9,VALID,0,VALID,93.9573,VALID,0,VALID,23.5284,VALID,319,VALID,0.385156,
2009-08-10, 00:43:05,VALID,1003.9,VALID,0,VALID,93.9802,VALID,0,VALID,23.5071,VALID,319,VALID,0.329297,
2009-08-10, 00:44:05,VALID,1003.89,VALID,0,VALID,94.0336,VALID,0,VALID,23.5071,VALID,319,VALID,0.368359,
2009-08-10, 00:45:05,VALID,1003.92,VALID,0,VALID,94.1404,VALID,0,VALID,23.546,VALID,319,VALID,0.330469,
2009-08-10, 00:46:05,VALID,1003.9,VALID,0,VALID,94.1556,VALID,0,VALID,23.546,VALID,319,VALID,0.461328,
2009-08-10, 00:47:05,VALID,1003.91,VALID,0,VALID,94.1328,VALID,0,VALID,23.5673,VALID,319,VALID,0.403125,
2009-08-10, 00:48:05,VALID,1003.93,VALID,0,VALID,94.0717,VALID,0,VALID,23.5284,VALID,319,VALID,0.444531,
2009-08-10, 00:49:05,VALID,1003.94,VALID,0,VALID,94.0641,VALID,0,VALID,23.5266,VALID,319,VALID,0.439453,
2009-08-10, 00:50:05,VALID,1003.92,VALID,0,VALID,94.087,VALID,0,VALID,23.4877,VALID,319,VALID,0.396094,
2009-08-10, 00:51:05,VALID,1003.95,VALID,0,VALID,94.1175,VALID,0,VALID,23.4877,VALID,319,VALID,0.31875,
2009-08-10, 00:52:05,VALID,1003.94,VALID,0,VALID,94.2548,VALID,0,VALID,23.5266,VALID,319,VALID,0.392188,
2009-08-10, 00:53:05,VALID,1003.91,VALID,0,VALID,94.2548,VALID,0,VALID,23.5266,VALID,320,VALID,0.437109,
2009-08-10, 00:54:05,VALID,1003.92,VALID,0,VALID,94.2167,VALID,0,VALID,23.5071,VALID,320,VALID,0.349609,
2009-08-10, 00:55:05,VALID,1003.91,VALID,0,VALID,94.2243,VALID,0,VALID,23.5071,VALID,321,VALID,0.579687,
2009-08-10, 00:56:05,VALID,1003.92,VALID,0,VALID,94.2167,VALID,0,VALID,23.4877,VALID,323,VALID,0.465234,
2009-08-10, 00:57:05,VALID,1003.87,VALID,0,VALID,94.2319,VALID,0,VALID,23.5071,VALID,324,VALID,0.524609,
2009-08-10, 00:58:05,VALID,1003.9,VALID,0,VALID,94.2243,VALID,0,VALID,23.4877,VALID,324,VALID,0.30625,
2009-08-10, 00:59:05,VALID,1003.89,VALID,0,VALID,94.2396,VALID,0,VALID,23.4682,VALID,340,VALID,0.442969,
2009-08-10, 01:00:05,VALID,1003.89,VALID,0,VALID,94.209,VALID,0,VALID,23.4275,VALID,340,VALID,0.360547,
2009-08-10, 01:01:05,VALID,1003.92,VALID,0,VALID,94.1556,VALID,0,VALID,23.4116,VALID,340,VALID,0.350391,
2009-08-10, 01:02:05,VALID,1003.89,VALID,0,VALID,94.1022,VALID,0,VALID,23.3514,VALID,340,VALID,0.467578,
2009-08-10, 01:03:05,VALID,1003.9,VALID,0,VALID,94.1785,VALID,0,VALID,23.3904,VALID,341,VALID,0.502734,
2009-08-10, 01:04:05,VALID,1003.89,VALID,0,VALID,94.2701,VALID,0,VALID,23.4293,VALID,357,VALID,0.625781,
2009-08-10, 01:05:05,VALID,1003.89,VALID,0,VALID,94.354,VALID,0,VALID,23.47,VALID,358,VALID,0.7125,
2009-08-10, 01:06:05,VALID,1003.85,VALID,0,VALID,94.4303,VALID,0,VALID,23.4859,VALID,358,VALID,0.518359,
2009-08-10, 01:07:05,VALID,1003.86,VALID,0,VALID,94.415,VALID,0,VALID,23.5089,VALID,358,VALID,0.483203,
2009-08-10, 01:08:05,VALID,1003.82,VALID,0,VALID,94.3921,VALID,0,VALID,23.5071,VALID,358,VALID,0.564844,
2009-08-10, 01:09:05,VALID,1003.82,VALID,0,VALID,94.2853,VALID,0,VALID,23.5089,VALID,358,VALID,0.55625,
2009-08-10, 01:10:05,VALID,1003.83,VALID,0,VALID,94.2548,VALID,0,VALID,23.4877,VALID,358,VALID,0.380469,
2009-08-10, 01:11:05,VALID,1003.84,VALID,0,VALID,94.4227,VALID,0,VALID,23.5868,VALID,358,VALID,0.262109,
2009-08-10, 01:12:05,VALID,1003.83,VALID,0,VALID,94.3311,VALID,0,VALID,23.5673,VALID,358,VALID,0.394141,
2009-08-10, 01:13:05,VALID,1003.83,VALID,0,VALID,94.2167,VALID,0,VALID,23.5266,VALID,358,VALID,0.464453,
2009-08-10, 01:14:05,VALID,1003.83,VALID,0,VALID,94.1328,VALID,0,VALID,23.4877,VALID,358,VALID,0.378906,
2009-08-10, 01:15:05,VALID,1003.82,VALID,0,VALID,94.1251,VALID,0.100563,VALID,23.4664,VALID,358,VALID,0.483203,
2009-08-10, 01:16:05,VALID,1003.79,VALID,0,VALID,94.1633,VALID,0,VALID,23.4877,VALID,358,VALID,0.534766,
2009-08-10, 01:17:05,VALID,1003.74,VALID,0,VALID,94.1709,VALID,0.100563,VALID,23.4877,VALID,358,VALID,0.574219,
2009-08-10, 01:18:05,VALID,1003.77,VALID,0,VALID,94.1633,VALID,0.100563,VALID,23.4894,VALID,358,VALID,0.501172,
2009-08-10, 01:19:05,VALID,1003.75,VALID,0,VALID,94.1633,VALID,0,VALID,23.4682,VALID,358,VALID,0.469531,
2009-08-10, 01:20:05,VALID,1003.69,VALID,0,VALID,94.1404,VALID,0,VALID,23.4293,VALID,358,VALID,0.542188,
2009-08-10, 01:21:05,VALID,1003.73,VALID,0,VALID,94.1404,VALID,0,VALID,23.4293,VALID,358,VALID,0.491797,
2009-08-10, 01:22:05,VALID,1003.74,VALID,0,VALID,94.1633,VALID,0,VALID,23.408,VALID,358,VALID,0.478125,
2009-08-10, 01:23:05,VALID,1003.7,VALID,0,VALID,94.1251,VALID,0,VALID,23.3691,VALID,358,VALID,0.306641,
2009-08-10, 01:24:05,VALID,1003.7,VALID,0,VALID,94.1175,VALID,0.100563,VALID,23.3709,VALID,358,VALID,0.493359,
2009-08-10, 01:25:05,VALID,1003.7,VALID,0,VALID,94.1938,VALID,0,VALID,23.3886,VALID,358,VALID,0.310937,
2009-08-10, 01:26:05,VALID,1003.69,VALID,0,VALID,94.2777,VALID,0.100563,VALID,23.4098,VALID,358,VALID,0.366406,
2009-08-10, 01:27:05,VALID,1003.71,VALID,0,VALID,94.3616,VALID,0.100563,VALID,23.4293,VALID,358,VALID,0.419531,
2009-08-10, 01:28:05,VALID,1003.69,VALID,0,VALID,94.4837,VALID,0,VALID,23.4877,VALID,358,VALID,0.308984,
2009-08-10, 01:29:05,VALID,1003.68,VALID,0,VALID,94.5447,VALID,0,VALID,23.4859,VALID,358,VALID,0.230859,
2009-08-10, 01:30:05,VALID,1003.67,VALID,0,VALID,94.4684,VALID,0.100563,VALID,23.447,VALID,358,VALID,0.299609,
2009-08-10, 01:31:05,VALID,1003.66,VALID,0,VALID,94.3464,VALID,0.100563,VALID,23.4293,VALID,358,VALID,0.475,
2009-08-10, 01:32:05,VALID,1003.62,VALID,0,VALID,94.2548,VALID,0.100563,VALID,23.3886,VALID,358,VALID,0.570703,
2009-08-10, 01:33:05,VALID,1003.62,VALID,0,VALID,94.1938,VALID,0.100563,VALID,23.3904,VALID,358,VALID,0.667188,
2009-08-10, 01:34:05,VALID,1003.61,VALID,0,VALID,94.1633,VALID,0.100563,VALID,23.3497,VALID,358,VALID,0.628125,
2009-08-10, 01:35:05,VALID,1003.59,VALID,0,VALID,94.1099,VALID,0,VALID,23.3337,VALID,358,VALID,0.491406,
2009-08-10, 01:36:05,VALID,1003.62,VALID,0,VALID,94.1175,VALID,0.100563,VALID,23.3125,VALID,358,VALID,0.517969,
2009-08-10, 01:37:05,VALID,1003.62,VALID,0,VALID,94.1404,VALID,0.100563,VALID,23.2931,VALID,358,VALID,0.473437,
2009-08-10, 01:38:05,VALID,1003.61,VALID,0,VALID,94.1938,VALID,0.100563,VALID,23.2931,VALID,358,VALID,0.50625,
2009-08-10, 01:39:05,VALID,1003.62,VALID,0,VALID,94.2396,VALID,0.100563,VALID,23.2931,VALID,358,VALID,0.394141,
2009-08-10, 01:40:05,VALID,1003.59,VALID,0,VALID,94.3158,VALID,0.100563,VALID,23.2931,VALID,358,VALID,0.41875,
2009-08-10, 01:41:05,VALID,1003.58,VALID,0,VALID,94.354,VALID,0,VALID,23.3125,VALID,358,VALID,0.401172,
2009-08-10, 01:42:05,VALID,1003.58,VALID,0,VALID,94.4074,VALID,0.100563,VALID,23.332,VALID,358,VALID,0.458594,
2009-08-10, 01:43:05,VALID,1003.52,VALID,0,VALID,94.4455,VALID,0,VALID,23.332,VALID,358,VALID,0.538281,
2009-08-10, 01:44:05,VALID,1003.55,VALID,0,VALID,94.4837,VALID,0,VALID,23.3514,VALID,358,VALID,0.552734,
2009-08-10, 01:45:05,VALID,1003.52,VALID,0,VALID,94.5447,VALID,0.100563,VALID,23.3709,VALID,358,VALID,0.514844,
2009-08-10, 01:46:05,VALID,1003.53,VALID,0,VALID,94.5829,VALID,0,VALID,23.3709,VALID,358,VALID,0.446875,
2009-08-10, 01:47:05,VALID,1003.51,VALID,0,VALID,94.6057,VALID,0,VALID,23.3904,VALID,358,VALID,0.686328,
2009-08-10, 01:48:05,VALID,1003.52,VALID,0,VALID,94.6668,VALID,0,VALID,23.4311,VALID,358,VALID,0.6125,
2009-08-10, 01:49:05,VALID,1003.5,VALID,0,VALID,94.682,VALID,0.100563,VALID,23.4311,VALID,358,VALID,0.569531,
2009-08-10, 01:50:05,VALID,1003.48,VALID,0,VALID,94.6744,VALID,0,VALID,23.4098,VALID,358,VALID,0.484766,
2009-08-10, 01:51:05,VALID,1003.47,VALID,0,VALID,94.6973,VALID,0,VALID,23.4098,VALID,358,VALID,0.594141,
2009-08-10, 01:52:05,VALID,1003.46,VALID,0,VALID,94.7278,VALID,0,VALID,23.3904,VALID,358,VALID,0.525,
2009-08-10, 01:53:05,VALID,1003.45,VALID,0,VALID,94.7125,VALID,0,VALID,23.4116,VALID,358,VALID,0.569922,
2009-08-10, 01:54:05,VALID,1003.4,VALID,0,VALID,94.7354,VALID,0,VALID,23.4098,VALID,358,VALID,0.427344,
2009-08-10, 01:55:05,VALID,1003.42,VALID,0,VALID,94.7354,VALID,0.100563,VALID,23.4098,VALID,358,VALID,0.363281,
2009-08-10, 01:56:05,VALID,1003.39,VALID,0,VALID,94.7583,VALID,0.100563,VALID,23.4098,VALID,358,VALID,0.380859,
2009-08-10, 01:57:05,VALID,1003.36,VALID,0,VALID,94.7431,VALID,0,VALID,23.3904,VALID,358,VALID,0.260938,
2009-08-10, 01:58:05,VALID,1003.37,VALID,0,VALID,94.7125,VALID,0,VALID,23.3514,VALID,358,VALID,0.287891,
2009-08-10, 01:59:05,VALID,1003.35,VALID,0,VALID,94.682,VALID,0,VALID,23.332,VALID,358,VALID,0.248047,
2009-08-10, 02:00:05,VALID,1003.34,VALID,0,VALID,94.6668,VALID,0,VALID,23.3125,VALID,358,VALID,0.303906,
2009-08-10, 02:01:05,VALID,1003.29,VALID,0,VALID,94.6668,VALID,0.100563,VALID,23.2913,VALID,358,VALID,0.310937,
2009-08-10, 02:02:05,VALID,1003.27,VALID,0,VALID,94.6668,VALID,0,VALID,23.2913,VALID,358,VALID,0.251563,
2009-08-10, 02:03:05,VALID,1003.27,VALID,0,VALID,94.7202,VALID,0,VALID,23.3337,VALID,358,VALID,0.486719,
2009-08-10, 02:04:05,VALID,1003.26,VALID,0,VALID,94.7507,VALID,0,VALID,23.332,VALID,358,VALID,0.222656,
2009-08-10, 02:05:05,VALID,1003.26,VALID,0,VALID,94.7354,VALID,0.100563,VALID,23.3125,VALID,358,VALID,0.31875,
2009-08-10, 02:06:05,VALID,1003.25,VALID,0,VALID,94.7125,VALID,0,VALID,23.3337,VALID,358,VALID,0.366797,
2009-08-10, 02:07:05,VALID,1003.26,VALID,0,VALID,94.7202,VALID,0.100563,VALID,23.2931,VALID,358,VALID,0.474219,
2009-08-10, 02:08:05,VALID,1003.26,VALID,0,VALID,94.6897,VALID,0,VALID,23.2541,VALID,358,VALID,0.412891,
2009-08-10, 02:09:05,VALID,1003.23,VALID,0,VALID,94.6668,VALID,0,VALID,23.2152,VALID,358,VALID,0.607422,
2009-08-10, 02:10:05,VALID,1003.25,VALID,0,VALID,94.6515,VALID,0.100563,VALID,23.2152,VALID,358,VALID,0.528906,
2009-08-10, 02:11:05,VALID,1003.28,VALID,0,VALID,94.6515,VALID,0,VALID,23.1957,VALID,358,VALID,0.539844,
2009-08-10, 02:12:05,VALID,1003.24,VALID,0,VALID,94.6439,VALID,0,VALID,23.1957,VALID,358,VALID,0.410156,
2009-08-10, 02:13:05,VALID,1003.22,VALID,0,VALID,94.6439,VALID,0,VALID,23.1975,VALID,358,VALID,0.581641,
2009-08-10, 02:14:05,VALID,1003.21,VALID,0,VALID,94.6591,VALID,0,VALID,23.1957,VALID,358,VALID,0.385938,
2009-08-10, 02:15:05,VALID,1003.21,VALID,0,VALID,94.7431,VALID,0,VALID,23.2541,VALID,358,VALID,0.457812,
2009-08-10, 02:16:05,VALID,1003.21,VALID,0,VALID,94.8041,VALID,0,VALID,23.2736,VALID,358,VALID,0.478516,
2009-08-10, 02:17:05,VALID,1003.19,VALID,0,VALID,94.8346,VALID,0,VALID,23.2948,VALID,358,VALID,0.595312,
2009-08-10, 02:18:05,VALID,1003.19,VALID,0,VALID,94.8117,VALID,0,VALID,23.2541,VALID,358,VALID,0.348437,
2009-08-10, 02:19:05,VALID,1003.2,VALID,0,VALID,94.7888,VALID,0,VALID,23.2754,VALID,358,VALID,0.470313,
2009-08-10, 02:20:05,VALID,1003.19,VALID,0,VALID,94.7888,VALID,0,VALID,23.2347,VALID,358,VALID,0.414063,
2009-08-10, 02:21:05,VALID,1003.2,VALID,0,VALID,94.7507,VALID,0,VALID,23.2152,VALID,358,VALID,0.280469,
2009-08-10, 02:22:05,VALID,1003.17,VALID,0,VALID,94.7431,VALID,0,VALID,23.2134,VALID,358,VALID,0.469531,
2009-08-10, 02:23:05,VALID,1003.21,VALID,0,VALID,94.7354,VALID,0,VALID,23.2152,VALID,358,VALID,0.316016,
2009-08-10, 02:24:05,VALID,1003.21,VALID,0,VALID,94.7354,VALID,0,VALID,23.2152,VALID,358,VALID,0.363672,
2009-08-10, 02:25:05,VALID,1003.18,VALID,0,VALID,94.7202,VALID,0,VALID,23.1957,VALID,358,VALID,0.401953,
2009-08-10, 02:26:05,VALID,1003.19,VALID,0,VALID,94.7125,VALID,0,VALID,23.1975,VALID,358,VALID,0.468359,
2009-08-10, 02:27:04,VALID,1003.18,VALID,0,VALID,94.7278,VALID,0,VALID,23.1957,VALID,358,VALID,0.338672,
2009-08-10, 02:28:04,VALID,1003.16,VALID,0,VALID,94.7507,VALID,0,VALID,23.1957,VALID,358,VALID,0.261719,
2009-08-10, 02:29:04,VALID,1003.16,VALID,0,VALID,94.7583,VALID,0,VALID,23.1763,VALID,358,VALID,0.383594,
2009-08-10, 02:30:04,VALID,1003.15,VALID,0,VALID,94.7278,VALID,0,VALID,23.178,VALID,358,VALID,0.4375,
2009-08-10, 02:31:04,VALID,1003.14,VALID,0,VALID,94.7125,VALID,0,VALID,23.1586,VALID,358,VALID,0.410156,
2009-08-10, 02:32:04,VALID,1003.13,VALID,0,VALID,94.7049,VALID,0,VALID,23.1374,VALID,358,VALID,0.513281,
2009-08-10, 02:33:04,VALID,1003.05,VALID,0,VALID,94.6973,VALID,0,VALID,23.1179,VALID,358,VALID,0.482812,
2009-08-10, 02:34:04,VALID,1003.05,VALID,0,VALID,94.7049,VALID,0,VALID,23.1179,VALID,358,VALID,0.335156,
2009-08-10, 02:35:04,VALID,1003.04,VALID,0,VALID,94.6973,VALID,0,VALID,23.1179,VALID,358,VALID,0.252344,
2009-08-10, 02:36:04,VALID,1003.03,VALID,0,VALID,94.7049,VALID,0,VALID,23.1391,VALID,358,VALID,0.407031,
2009-08-10, 02:37:04,VALID,1003.05,VALID,0,VALID,94.7431,VALID,0,VALID,23.1391,VALID,358,VALID,0.249219,
2009-08-10, 02:38:04,VALID,1003.04,VALID,0,VALID,94.7736,VALID,0,VALID,23.1374,VALID,358,VALID,0.291797,
2009-08-10, 02:39:04,VALID,1003.05,VALID,0,VALID,94.8499,VALID,0,VALID,23.1356,VALID,358,VALID,0.328516,
2009-08-10, 02:40:04,VALID,1003.04,VALID,0,VALID,94.8575,VALID,0,VALID,23.1568,VALID,358,VALID,0.526953,
2009-08-10, 02:41:04,VALID,1003.05,VALID,0,VALID,94.8575,VALID,0,VALID,23.1551,VALID,358,VALID,0.3875,
2009-08-10, 02:42:04,VALID,1003.06,VALID,0,VALID,94.8499,VALID,0,VALID,23.1763,VALID,358,VALID,0.355469,
2009-08-10, 02:43:04,VALID,1003.04,VALID,0,VALID,94.827,VALID,0,VALID,23.1568,VALID,358,VALID,0.327734,
2009-08-10, 02:44:04,VALID,1003.05,VALID,0,VALID,94.827,VALID,0,VALID,23.1568,VALID,358,VALID,0.435547,
2009-08-10, 02:45:04,VALID,1003.05,VALID,0,VALID,94.8422,VALID,0,VALID,23.1568,VALID,358,VALID,0.398047,
2009-08-10, 02:46:04,VALID,1003.03,VALID,0,VALID,94.8651,VALID,0,VALID,23.1975,VALID,358,VALID,0.584375,
2009-08-10, 02:47:04,VALID,1003.04,VALID,0,VALID,94.9033,VALID,0,VALID,23.1551,VALID,358,VALID,0.460547,
2009-08-10, 02:48:04,VALID,1003.05,VALID,0,VALID,94.9109,VALID,0.100563,VALID,23.1763,VALID,358,VALID,0.196094,
2009-08-10, 02:49:04,VALID,1003.03,VALID,0,VALID,94.888,VALID,0,VALID,23.1568,VALID,358,VALID,0.13125,
2009-08-10, 02:50:04,VALID,1003.01,VALID,0,VALID,94.8804,VALID,0,VALID,23.1568,VALID,358,VALID,0.248828,
2009-08-10, 02:51:04,VALID,1003.04,VALID,0,VALID,94.888,VALID,0,VALID,23.1356,VALID,358,VALID,0.216797,
2009-08-10, 02:52:04,VALID,1003,VALID,0,VALID,94.9109,VALID,0,VALID,23.1568,VALID,358,VALID,0.275391,
2009-08-10, 02:53:04,VALID,1003,VALID,0,VALID,94.9033,VALID,0,VALID,23.1374,VALID,358,VALID,0.294922,
2009-08-10, 02:54:04,VALID,1002.98,VALID,0,VALID,94.9033,VALID,0.100563,VALID,23.1374,VALID,358,VALID,0.323047,
2009-08-10, 02:55:04,VALID,1003,VALID,0,VALID,94.9033,VALID,0,VALID,23.0984,VALID,358,VALID,0.264453,
2009-08-10, 02:56:04,VALID,1003.01,VALID,0,VALID,94.8728,VALID,0,VALID,23.0984,VALID,358,VALID,0.370703,
2009-08-10, 02:57:04,VALID,1003.04,VALID,0,VALID,94.8346,VALID,0,VALID,23.0595,VALID,358,VALID,0.278125,
2009-08-10, 02:58:04,VALID,1003.05,VALID,0,VALID,94.8346,VALID,0,VALID,23.0595,VALID,358,VALID,0.343359,
2009-08-10, 02:59:04,VALID,1003.07,VALID,0,VALID,94.827,VALID,0,VALID,23.0401,VALID,358,VALID,0.285156,
2009-08-10, 03:00:04,VALID,1003.06,VALID,0,VALID,94.8194,VALID,0,VALID,23.0807,VALID,358,VALID,0.416797,
2009-08-10, 03:01:04,VALID,1003.08,VALID,0,VALID,94.8041,VALID,0,VALID,23.0613,VALID,358,VALID,0.389453,
2009-08-10, 03:02:04,VALID,1003.1,VALID,0,VALID,94.7888,VALID,0,VALID,23.0401,VALID,358,VALID,0.349219,
2009-08-10, 03:03:04,VALID,1003.07,VALID,0,VALID,94.766,VALID,0.100563,VALID,23.0401,VALID,358,VALID,0.448828,
2009-08-10, 03:04:04,VALID,1003.1,VALID,0,VALID,94.7812,VALID,0,VALID,23.0401,VALID,358,VALID,0.371875,
2009-08-10, 03:05:04,VALID,1003.1,VALID,0,VALID,94.8117,VALID,0,VALID,23.0595,VALID,358,VALID,0.473437,
2009-08-10, 03:06:04,VALID,1003.12,VALID,0,VALID,94.8346,VALID,0,VALID,23.1002,VALID,358,VALID,0.493359,
2009-08-10, 03:07:04,VALID,1003.12,VALID,0,VALID,94.8346,VALID,0,VALID,23.0807,VALID,358,VALID,0.441797,
2009-08-10, 03:08:04,VALID,1003.14,VALID,0,VALID,94.827,VALID,0,VALID,23.0401,VALID,358,VALID,0.353906,
2009-08-10, 03:09:04,VALID,1003.18,VALID,0,VALID,94.8117,VALID,0,VALID,23.0401,VALID,358,VALID,0.369531,
2009-08-10, 03:10:04,VALID,1003.17,VALID,0,VALID,94.8117,VALID,0,VALID,23.0595,VALID,358,VALID,0.399609,
2009-08-10, 03:11:04,VALID,1003.18,VALID,0,VALID,94.8194,VALID,0,VALID,23.1002,VALID,358,VALID,0.336328,
2009-08-10, 03:12:04,VALID,1003.2,VALID,0,VALID,94.8422,VALID,0,VALID,23.079,VALID,358,VALID,0.20625,
2009-08-10, 03:13:04,VALID,1003.18,VALID,0,VALID,94.8422,VALID,0.100563,VALID,23.0772,VALID,358,VALID,0.224609,
2009-08-10, 03:14:04,VALID,1003.17,VALID,0,VALID,94.8117,VALID,0.100563,VALID,23.0595,VALID,358,VALID,0.390625,
2009-08-10, 03:15:04,VALID,1003.13,VALID,0,VALID,94.7965,VALID,0.100563,VALID,23.0383,VALID,358,VALID,0.272266,
2009-08-10, 03:16:04,VALID,1003.13,VALID,0,VALID,94.8041,VALID,0.100563,VALID,23.0189,VALID,358,VALID,0.407031,
2009-08-10, 03:17:04,VALID,1003.11,VALID,0,VALID,94.7965,VALID,0,VALID,23.0401,VALID,358,VALID,0.38125,
2009-08-10, 03:18:04,VALID,1003.11,VALID,0,VALID,94.8194,VALID,0.100563,VALID,23.0189,VALID,358,VALID,0.065625,
2009-08-10, 03:19:04,VALID,1003.12,VALID,0,VALID,94.7812,VALID,0.100563,VALID,22.9994,VALID,358,VALID,0,
2009-08-10, 03:20:04,VALID,1003.11,VALID,0,VALID,94.7736,VALID,0.100563,VALID,22.98,VALID,358,VALID,0,
2009-08-10, 03:21:04,VALID,1003.15,VALID,0,VALID,94.7583,VALID,0.100563,VALID,22.98,VALID,358,VALID,0,
2009-08-10, 03:22:04,VALID,1003.14,VALID,0,VALID,94.7278,VALID,0.100563,VALID,22.9622,VALID,358,VALID,0.194922,
2009-08-10, 03:23:04,VALID,1003.15,VALID,0,VALID,94.6973,VALID,0.100563,VALID,22.9428,VALID,358,VALID,0.297266,
2009-08-10, 03:24:04,VALID,1003.14,VALID,0,VALID,94.7049,VALID,0.100563,VALID,22.9216,VALID,358,VALID,0.422656,
2009-08-10, 03:25:04,VALID,1003.15,VALID,0,VALID,94.7049,VALID,0.100563,VALID,22.9428,VALID,358,VALID,0.284375,
2009-08-10, 03:26:04,VALID,1003.17,VALID,0,VALID,94.6897,VALID,0,VALID,22.9428,VALID,358,VALID,0.386328,
2009-08-10, 03:27:04,VALID,1003.17,VALID,0,VALID,94.7049,VALID,0.100563,VALID,22.9021,VALID,358,VALID,0.285156,
2009-08-10, 03:28:04,VALID,1003.17,VALID,0,VALID,94.7507,VALID,0,VALID,22.9233,VALID,358,VALID,0.387109,
2009-08-10, 03:29:04,VALID,1003.22,VALID,0,VALID,94.7354,VALID,0.100563,VALID,22.9039,VALID,358,VALID,0.331641,
2009-08-10, 03:30:04,VALID,1003.21,VALID,0,VALID,94.7431,VALID,0.100563,VALID,22.9039,VALID,358,VALID,0.380859,
2009-08-10, 03:31:04,VALID,1003.21,VALID,0,VALID,94.7507,VALID,0.100563,VALID,22.8827,VALID,358,VALID,0.237891,
2009-08-10, 03:32:04,VALID,1003.24,VALID,0,VALID,94.8117,VALID,0.100563,VALID,22.9021,VALID,358,VALID,0.0996094,
2009-08-10, 03:33:04,VALID,1003.22,VALID,0,VALID,94.8041,VALID,0.100563,VALID,22.9039,VALID,358,VALID,0.366797,
2009-08-10, 03:34:04,VALID,1003.2,VALID,0,VALID,94.8041,VALID,0.100563,VALID,22.9021,VALID,358,VALID,0.145313,
2009-08-10, 03:35:04,VALID,1003.2,VALID,0,VALID,94.827,VALID,0.100563,VALID,22.9021,VALID,358,VALID,0.139062,
2009-08-10, 03:36:04,VALID,1003.18,VALID,0,VALID,94.9033,VALID,0.100563,VALID,22.9622,VALID,358,VALID,0.46875,
2009-08-10, 03:37:04,VALID,1003.19,VALID,0,VALID,94.9033,VALID,0.100563,VALID,22.941,VALID,358,VALID,0.200391,
2009-08-10, 03:38:04,VALID,1003.19,VALID,0,VALID,94.9338,VALID,0.201126,VALID,22.9605,VALID,358,VALID,0.339453,
2009-08-10, 03:39:04,VALID,1003.18,VALID,0,VALID,94.9338,VALID,0.100563,VALID,22.9817,VALID,358,VALID,0.254687,
2009-08-10, 03:40:04,VALID,1003.19,VALID,0,VALID,94.9338,VALID,0.100563,VALID,22.9605,VALID,358,VALID,0.338672,
2009-08-10, 03:41:04,VALID,1003.17,VALID,0,VALID,94.9414,VALID,0.100563,VALID,22.9622,VALID,358,VALID,0.245703,